Location: Aula-Vintri
(58.3875°N, 22.4322°E)
Time: 21:29:41
(UTC+00:00)

Cosmos 1937 Rocket - Pass Details

Date: 13 October 2019
Orbit: 747 x 780 km, 74.0° (Epoch: 15 November)

Event Time Altitude Azimuth Distance (km) Brightness Sun altitude
Rises 17:50:12 0° 328° (NNW) 3,221 7.5 -18.8°
Reaches altitude 10° 17:52:43 10° 335° (NNW) 2,289 6.5 -19.2°
Maximum altitude 17:57:38 42° 46° (NE) 1,064 4.0 -19.8°
Enters shadow 17:58:45 37° 79° (ENE) 1,157 4.0 -19.9°
